QPF
0.01 0.01 0.00 0.01 0.06 0.05 0.04 0.01 0.00 0.00 0.00 0.00 0.00 0.00 0.00 0.00 0.00 0.00 0.00 0.00 0.00 0.00 0.00 0.00 0.00 0.00 0.00 0.00 0.00 0.00 0.00 0.00
0.00 0.01 0.00 0.00 0.00 0.00 0.02 0.01 0.00 0.00 0.00 0.00 0.00 0.00 0.00 0.00 0.00 0.00 0.00 0.00 0.00 0.00 0.00 0.00 0.00 0.00 0.00 0.00 0.00 0.00 0.00 0.00
0.00 0.01 0.00 0.00 0.00 0.00 0.00 0.00 0.00 0.00 0.00 0.00 0.00 0.00 0.00 0.00 0.00 0.00 0.00 0.00 0.00 0.00 0.00 0.00 0.00 0.00 0.00 0.00 0.00 0.00 0.00 0.00
0.00 0.00 0.00 0.00 0.00 0.00 0.00 0.00 0.00 0.00 0.00 0.00 0.00 0.00 0.00 0.00 0.00 0.00 0.00 0.00 0.00 0.00 0.00 0.00 0.00 0.00 0.00 0.00 0.00 0.00 0.00 0.00
0.00 0.00 0.00 0.00 0.00 0.00 0.00 0.00 0.00 0.00 0.00 0.00 0.00 0.00 0.00 0.00 0.00 0.00 0.00 0.00 0.00 0.00 0.00 0.00 0.00 0.00 0.00 0.00 0.00 0.00 0.00 0.00
0.00 0.00 0.00 0.00 0.00 0.00 0.00 0.00 0.00 0.00 0.00 0.00 0.00 0.00 0.00 0.00 0.00 0.00 0.00 0.00 0.00 0.00 0.00 0.00 0.00 0.00 0.00 0.00 0.00 0.00 0.00 0.00
0.00 0.00 0.00 0.00 0.00 0.00 0.00 0.00 0.00 0.00 0.00 0.00 0.00 0.00 0.00 0.00 0.00 0.00 0.00 0.00 0.00 0.00 0.00 0.00 0.00 0.00 0.00 0.00 0.00 0.00 0.00 0.00
0.00 0.00 0.00 0.00 0.00 0.00 0.00 0.00 0.00 0.00 0.00 0.00 0.00 0.00 0.00 0.00 0.00 0.00 0.00 0.00 0.00 0.00 0.00 0.00 0.00 0.00 0.00 0.00 0.00 0.00 0.00 0.00
0.00 0.00 0.00 0.00 0.00 0.00 0.00 0.00 0.00 0.00 0.00 0.00 0.00 0.00 0.00 0.00 0.00 0.00 0.00 0.00 0.00 0.00 0.00 0.00 0.00 0.00 0.00 0.00 0.00 0.00 0.00 0.00
0.00 0.00 0.00 0.00 0.00 0.00 0.00 0.00 0.00 0.00 0.00 0.00 0.00 0.00 0.00 0.00 0.00 0.00 0.00 0.00 0.00 0.00 0.00 0.00 0.00 0.00 0.00 0.00 0.00 0.00 0.00 0.00
0.00 0.00 0.00 0.00 0.00 0.00 0.00 0.00 0.00 0.00 0.00 0.00 0.00 0.00 0.00 0.00 0.00 0.00 0.00 0.00 0.00 0.00 0.00 0.00 0.00 0.00 0.00 0.00 0.00 0.00 0.00 0.00
0.00 0.00 0.00 0.00 0.00 0.00 0.00 0.00 0.00 0.00 0.00 0.00 0.00 0.00 0.00 0.00 0.00 0.00 0.00 0.00 0.00 0.00 0.00 0.00 0.00 0.00 0.00 0.00 0.00 0.00 0.00 0.00
0.00 0.00 0.00 0.00 0.00 0.00 0.00 0.00 0.00 0.00 0.00 0.00 0.00 0.00 0.00 0.00 0.00 0.00 0.00 0.00 0.00 0.00 0.00 0.00 0.00 0.00 0.00 0.00 0.00 0.00 0.00 0.00
0.00 0.00 0.00 0.00 0.00 0.00 0.00 0.00 0.00 0.00 0.00 0.00 0.00 0.00 0.00 0.00 0.00 0.00 0.00 0.00 0.00 0.00 0.00 0.00 0.00 0.00 0.00 0.00 0.00 0.00 0.00 0.00
0.00 0.00 0.00 0.00 0.00 0.00 0.00 0.00 0.00 0.00 0.00 0.00 0.00 0.00 0.00 0.00 0.00 0.00 0.00 0.00 0.00 0.00 0.00 0.00 0.00 0.00 0.00 0.00 0.00 0.00 0.00 0.00
0.00 0.00 0.00 0.00 0.00 0.00 0.00 0.00 0.00 0.00 0.00 0.00 0.00 0.00 0.00 0.00 0.00 0.00 0.00 0.00 0.00 0.00 0.00 0.00 0.00 0.00 0.00 0.00 0.00 0.00 0.00 0.00
0.00 0.00 0.00 0.00 0.00 0.00 0.00 0.00 0.00 0.00 0.00 0.00 0.00 0.00 0.00 0.00 0.00 0.00 0.00 0.00 0.00 0.00 0.00 0.00 0.00 0.00 0.00 0.00 0.00 0.00 0.00 0.00
0.00 0.00 0.00 0.00 0.00 0.00 0.00 0.00 0.00 0.00 0.00 0.00 0.00 0.00 0.00 0.00 0.00 0.00 0.00 0.00 0.00 0.00 0.00 0.00 0.00 0.00 0.00 0.00 0.00 0.00 0.00 0.00
0.00 0.00 0.00 0.00 0.00 0.00 0.00 0.00 0.00 0.00 0.00 0.00 0.00 0.00 0.00 0.00 0.00 0.00 0.00 0.00 0.00 0.00 0.00 0.00 0.00 0.00 0.00 0.00 0.00 0.00 0.00 0.00
MSLP
1021.29 1021.81 1022.51 1022.62 1023.07 1023.39 1023.73 1024.25 1023.92 1024.53 1024.78 1024.96 1024.85 1024.98 1025.18 1025.10 1025.09 1025.27 1025.27 1025.20 1025.21 1024.80 1024.71 1024.82 1024.46 1024.13 1023.97 1023.77 1023.54 1023.35 1023.23 1022.82
1022.31 1021.78 1022.57 1022.69 1023.24 1023.80 1023.96 1023.61 1024.41 1024.82 1025.04 1024.95 1025.07 1025.15 1025.62 1025.63 1025.94 1026.04 1025.94 1025.81 1025.80 1025.62 1025.36 1025.33 1025.19 1025.03 1024.96 1024.67 1024.16 1024.01 1023.76 1023.76
1021.96 1022.43 1022.35 1022.70 1023.13 1023.57 1023.85 1024.03 1024.80 1024.94 1024.80 1024.94 1025.12 1025.44 1026.09 1026.48 1026.53 1026.56 1026.56 1026.42 1026.44 1026.10 1026.12 1026.11 1026.00 1025.70 1025.74 1025.39 1024.90 1024.56 1024.69 1024.44
1021.44 1021.97 1022.18 1022.53 1022.86 1023.31 1023.90 1024.20 1024.64 1024.93 1024.73 1025.17 1025.64 1025.91 1026.53 1026.71 1026.92 1027.02 1026.99 1027.01 1027.11 1026.74 1026.84 1026.83 1026.80 1026.45 1026.57 1026.15 1025.87 1025.49 1025.20 1025.22
1021.02 1021.48 1022.05 1022.33 1022.75 1023.07 1023.68 1024.14 1024.62 1024.87 1025.03 1025.09 1025.26 1025.66 1026.31 1027.30 1027.29 1027.65 1027.54 1027.53 1027.67 1027.52 1027.48 1027.61 1027.71 1027.40 1027.28 1026.98 1026.79 1026.50 1025.97 1025.74
1020.23 1021.01 1021.52 1022.15 1022.75 1023.14 1023.70 1024.25 1024.62 1025.10 1025.37 1025.03 1025.11 1025.98 1026.55 1027.33 1027.69 1027.94 1028.08 1028.08 1028.12 1028.31 1028.12 1028.34 1028.48 1028.12 1027.86 1027.80 1027.53 1027.41 1027.33 1026.83
1019.93 1020.83 1021.53 1022.10 1022.79 1023.18 1023.81 1024.04 1024.48 1025.10 1025.54 1025.44 1025.52 1025.98 1026.61 1027.33 1027.88 1028.15 1028.41 1028.52 1028.53 1028.69 1028.83 1028.90 1028.95 1028.75 1028.36 1028.43 1028.41 1028.37 1028.06 1027.65
1019.27 1020.12 1021.00 1021.74 1022.46 1022.88 1023.51 1023.89 1024.25 1024.95 1025.52 1025.79 1026.13 1026.32 1026.69 1027.35 1027.82 1028.20 1028.63 1028.71 1028.78 1029.16 1029.15 1029.28 1029.52 1029.28 1029.15 1028.97 1028.93 1028.76 1028.57 1028.26
1018.43 1019.54 1020.54 1021.46 1022.27 1022.86 1023.36 1023.89 1024.31 1024.69 1025.51 1025.98 1026.40 1026.84 1027.13 1027.46 1027.93 1028.25 1028.51 1028.81 1029.13 1029.28 1029.51 1029.91 1029.94 1029.77 1029.55 1029.48 1029.06 1028.99 1028.85 1028.81
1017.45 1018.87 1020.01 1021.01 1021.87 1022.58 1023.19 1023.75 1024.25 1024.75 1025.46 1026.20 1026.68 1027.11 1027.29 1027.59 1027.88 1028.34 1028.66 1029.07 1029.20 1029.52 1030.02 1030.09 1030.00 1029.82 1029.94 1029.64 1029.46 1029.47 1029.08 1029.33
1017.08 1018.24 1019.52 1020.59 1021.48 1022.39 1023.25 1023.75 1024.14 1024.72 1025.42 1026.07 1026.60 1027.19 1027.39 1027.81 1028.10 1028.31 1028.70 1029.12 1029.44 1029.97 1030.12 1029.93 1029.87 1030.06 1030.07 1029.90 1029.87 1029.93 1029.58 1029.68
1016.34 1017.77 1019.11 1020.15 1021.26 1022.17 1022.97 1023.56 1024.12 1024.79 1025.33 1026.01 1026.68 1027.20 1027.39 1028.00 1028.19 1028.26 1028.73 1029.29 1029.68 1029.85 1029.82 1029.77 1029.95 1030.24 1030.31 1030.22 1030.29 1030.10 1030.11 1030.08
1016.20 1017.46 1018.68 1019.79 1020.82 1021.78 1022.58 1023.24 1023.86 1024.62 1025.29 1025.87 1026.48 1026.97 1027.46 1027.80 1028.02 1028.37 1028.98 1029.24 1029.49 1029.47 1029.65 1029.85 1030.17 1030.43 1030.51 1030.61 1030.45 1030.45 1030.48 1030.31
1016.07 1017.30 1018.12 1019.12 1020.21 1021.27 1022.07 1022.84 1023.53 1024.31 1024.97 1025.63 1026.28 1026.78 1027.22 1027.61 1027.98 1028.54 1029.01 1029.09 1029.13 1029.44 1029.63 1029.98 1030.26 1030.46 1030.66 1030.81 1030.86 1030.83 1030.70 1030.52
1015.64 1016.84 1017.67 1018.67 1019.67 1020.73 1021.59 1022.40 1023.21 1023.97 1024.68 1025.29 1025.95 1026.57 1027.08 1027.50 1028.01 1028.46 1028.68 1028.75 1028.96 1029.32 1029.69 1029.97 1030.30 1030.62 1030.78 1030.89 1030.89 1030.85 1030.71 1030.59
1014.89 1015.79 1016.89 1018.02 1019.07 1020.16 1021.06 1021.94 1022.83 1023.60 1024.29 1024.92 1025.58 1026.28 1026.86 1027.43 1027.93 1028.20 1028.42 1028.71 1029.00 1029.28 1029.57 1029.95 1030.35 1030.54 1030.74 1030.77 1030.83 1030.78 1030.66 1030.43
1014.04 1014.95 1016.10 1017.25 1018.30 1019.19 1020.25 1021.29 1022.21 1023.11 1023.81 1024.42 1025.19 1025.97 1026.60 1027.16 1027.62 1028.04 1028.43 1028.74 1028.95 1029.25 1029.49 1029.81 1030.13 1030.36 1031.24 1031.29 1030.99 1030.65 1030.52 1030.34
1013.10 1013.97 1015.02 1016.13 1017.17 1018.35 1019.31 1020.39 1021.62 1022.54 1023.25 1023.97 1024.71 1025.45 1026.18 1026.84 1027.39 1027.85 1028.18 1028.52 1028.90 1029.15 1029.40 1029.64 1029.90 1030.29 1031.01 1031.08 1031.22 1030.58 1030.38 1030.25
1012.18 1013.19 1014.14 1015.05 1016.30 1017.59 1018.77 1019.89 1020.88 1021.82 1022.63 1023.33 1024.12 1024.92 1025.68 1026.44 1026.99 1027.47 1027.97 1028.37 1028.72 1028.98 1029.23 1029.48 1029.77 1030.08 1030.76 1030.92 1031.11 1030.51 1030.20 1030.21
Thickness
5617 5615 5612 5614 5612 5610 5611 5606 5612 5610 5609 5612 5617 5619 5620 5622 5624 5624 5625 5625 5625 5626 5626 5624 5624 5624 5623 5622 5621 5621 5619 5620
5605 5611 5605 5606 5605 5603 5602 5608 5603 5603 5603 5609 5608 5611 5610 5612 5611 5612 5613 5614 5613 5613 5613 5613 5611 5610 5608 5608 5610 5609 5609 5605
5602 5600 5602 5601 5599 5597 5596 5598 5593 5594 5600 5600 5601 5601 5599 5598 5601 5601 5602 5603 5601 5604 5602 5600 5598 5597 5594 5595 5596 5598 5594 5593
5599 5598 5599 5599 5598 5595 5592 5591 5591 5590 5595 5592 5589 5590 5588 5588 5589 5590 5592 5591 5590 5592 5590 5588 5585 5585 5581 5582 5582 5583 5584 5580
5595 5595 5593 5595 5594 5593 5590 5587 5585 5585 5586 5587 5589 5590 5586 5578 5579 5577 5579 5580 5578 5579 5578 5575 5571 5572 5570 5570 5569 5569 5571 5571
5594 5591 5592 5591 5588 5588 5585 5581 5580 5577 5575 5583 5585 5579 5576 5571 5569 5568 5567 5567 5567 5565 5567 5562 5559 5561 5561 5559 5558 5556 5554 5557
5591 5586 5586 5585 5581 5580 5578 5578 5575 5571 5570 5573 5574 5572 5569 5564 5561 5559 5557 5556 5557 5556 5553 5552 5550 5550 5552 5549 5546 5544 5544 5545
5587 5585 5582 5578 5575 5575 5573 5573 5571 5567 5564 5564 5564 5563 5562 5558 5555 5553 5549 5549 5549 5546 5545 5543 5538 5541 5540 5539 5537 5536 5535 5535
5589 5584 5578 5573 5570 5568 5568 5566 5564 5564 5558 5557 5555 5553 5553 5552 5549 5547 5544 5542 5540 5539 5536 5531 5530 5530 5530 5528 5530 5528 5528 5526
5592 5584 5577 5571 5566 5563 5562 5561 5560 5558 5553 5549 5548 5546 5546 5545 5545 5540 5538 5535 5535 5531 5525 5524 5524 5525 5521 5522 5522 5520 5521 5515
5589 5582 5573 5568 5564 5559 5555 5554 5554 5552 5548 5545 5542 5538 5539 5537 5537 5536 5534 5530 5527 5521 5519 5521 5521 5518 5516 5516 5514 5511 5511 5507
5587 5578 5570 5565 5560 5555 5551 5549 5547 5544 5541 5538 5534 5533 5534 5530 5530 5532 5528 5524 5519 5517 5517 5518 5515 5511 5509 5509 5506 5506 5503 5500
5584 5576 5568 5563 5558 5553 5548 5545 5543 5540 5536 5533 5531 5530 5528 5528 5528 5526 5520 5517 5516 5516 5514 5512 5508 5506 5504 5502 5502 5499 5496 5494
5581 5573 5570 5564 5559 5553 5548 5543 5541 5537 5534 5532 5529 5528 5527 5525 5523 5518 5514 5514 5515 5512 5510 5506 5504 5502 5499 5497 5495 5492 5490 5489
5580 5573 5570 5564 5559 5553 5547 5543 5539 5536 5533 5531 5529 5526 5523 5521 5517 5513 5513 5513 5511 5508 5504 5502 5500 5496 5494 5492 5490 5488 5487 5484
5581 5577 5572 5565 5558 5553 5548 5543 5539 5535 5533 5530 5527 5523 5519 5516 5513 5512 5511 5509 5506 5504 5502 5499 5495 5493 5491 5489 5486 5484 5482 5480
5584 5579 5572 5565 5559 5555 5550 5544 5539 5535 5532 5529 5525 5521 5517 5514 5512 5509 5507 5504 5503 5501 5499 5496 5494 5491 5486 5483 5482 5481 5478 5474
5587 5582 5576 5569 5564 5558 5552 5547 5540 5535 5532 5528 5525 5521 5517 5513 5510 5507 5505 5503 5500 5498 5496 5495 5492 5488 5484 5481 5478 5476 5473 5469
5589 5583 5578 5574 5567 5559 5553 5547 5541 5536 5533 5529 5526 5522 5518 5513 5509 5507 5503 5500 5498 5497 5495 5493 5490 5486 5482 5478 5474 5471 5468 5464